Zurück zum Katalog

STARLINK-36354

AktivKommunikationSSO
NORAD 67800·PAYLOAD·🇺🇸 United States

Gestartet Feb 15, 2026 von Vandenberg Space Force Base

Loading…

Nächste Überflüge (nächste 24 Stunden)

TLE

AktuellSource: CelesTrak SupGP

Epoche: Sep 14, 2026, 22:57 UTC

1 67800C 26032D   26257.95673611  .00067409  00000+0  20929-2 0  2570
2 67800  97.2851  84.3923 0001230 114.7307 205.1426 15.33399343    17

Verfolge STARLINK-36354 in Echtzeit mit AllMySat

Download on the App Store